Time,TemperatureF,DewpointF,PressureIn,WindDirection,WindDirectionDegrees,WindSpeedMPH,WindSpeedGustMPH,Humidity,HourlyPrecipIn,Conditions,Clouds,dailyrainin,SoftwareType,DateUTC
2013-02-02 00:02:00,-7.0,-10.0,30.29,NNW,335,0.0,0.0,85,0.00,,,0.00,,2013-02-02 06:02:00,
2013-02-02 00:12:00,-7.0,-10.0,30.29,NNW,335,0.0,0.0,85,0.00,,,0.00,,2013-02-02 06:12:00,
2013-02-02 00:22:00,-8.0,-11.0,30.29,WNW,294,0.0,1.0,85,0.00,,,0.00,,2013-02-02 06:22:00,
2013-02-02 00:31:00,-7.0,-10.0,30.29,NW,322,0.0,1.0,85,0.00,,,0.00,,2013-02-02 06:31:00,
2013-02-02 00:41:00,-7.0,-10.0,30.29,NW,322,0.0,1.0,85,0.00,,,0.00,,2013-02-02 06:41:00,
2013-02-02 00:51:00,-8.0,-12.0,30.30,NW,321,0.0,0.0,84,0.00,,,0.00,,2013-02-02 06:51:00,
2013-02-02 01:02:00,-8.0,-11.0,30.30,NNW,330,0.0,1.0,85,0.00,,,0.00,,2013-02-02 07:02:00,
2013-02-02 01:11:00,-8.0,-11.0,30.30,NNW,330,0.0,1.0,85,0.00,,,0.00,,2013-02-02 07:11:00,
2013-02-02 01:21:00,-9.0,-12.0,30.31,NNW,330,0.0,1.0,84,0.00,,,0.00,,2013-02-02 07:21:00,
2013-02-02 01:31:00,-9.0,-12.0,30.31,NNW,330,0.0,0.0,84,0.00,,,0.00,,2013-02-02 07:31:00,
2013-02-02 01:41:00,-9.0,-12.0,30.31,NNW,330,0.0,0.0,84,0.00,,,0.00,,2013-02-02 07:41:00,
2013-02-02 01:51:00,-9.0,-12.0,30.31,West,281,0.0,1.0,85,0.00,,,0.00,,2013-02-02 07:51:00,
2013-02-02 02:01:00,-9.0,-12.0,30.31,West,281,0.0,0.0,84,0.00,,,0.00,,2013-02-02 08:01:00,
2013-02-02 02:11:00,-9.0,-12.0,30.31,West,281,0.0,0.0,84,0.00,,,0.00,,2013-02-02 08:11:00,
2013-02-02 02:21:00,-9.0,-12.0,30.32,West,281,0.0,1.0,85,0.00,,,0.00,,2013-02-02 08:21:00,
2013-02-02 02:31:00,-9.0,-12.0,30.32,WNW,288,0.0,1.0,84,0.00,,,0.00,,2013-02-02 08:31:00,
2013-02-02 02:41:00,-9.0,-12.0,30.32,WNW,288,0.0,1.0,84,0.00,,,0.00,,2013-02-02 08:41:00,
2013-02-02 02:52:00,-9.0,-12.0,30.33,NW,305,0.0,2.0,85,0.00,,,0.00,,2013-02-02 08:52:00,
2013-02-02 03:01:00,-9.0,-12.0,30.33,NW,306,0.0,2.0,84,0.00,,,0.00,,2013-02-02 09:01:00,
2013-02-02 03:11:00,-9.0,-12.0,30.33,NW,306,0.0,2.0,84,0.00,,,0.00,,2013-02-02 09:11:00,
2013-02-02 03:22:00,-9.0,-12.0,30.34,NW,323,1.0,3.0,84,0.00,,,0.00,,2013-02-02 09:22:00,
2013-02-02 03:31:00,-9.0,-12.0,30.34,WNW,293,1.0,2.0,84,0.00,,,0.00,,2013-02-02 09:31:00,
2013-02-02 03:41:00,-9.0,-12.0,30.34,WNW,293,1.0,2.0,84,0.00,,,0.00,,2013-02-02 09:41:00,
2013-02-02 03:52:00,-10.0,-13.0,30.34,NW,311,1.0,3.0,84,0.00,,,0.00,,2013-02-02 09:52:00,
2013-02-02 04:01:00,-10.0,-13.0,30.34,WNW,290,1.0,4.0,84,0.00,,,0.00,,2013-02-02 10:01:00,
2013-02-02 04:11:00,-10.0,-13.0,30.34,WNW,290,1.0,4.0,84,0.00,,,0.00,,2013-02-02 10:11:00,
2013-02-02 04:21:00,-10.0,-13.0,30.34,NW,305,2.0,4.0,84,0.00,,,0.00,,2013-02-02 10:21:00,
2013-02-02 04:32:00,-10.0,-13.0,30.34,NW,307,0.0,3.0,84,0.00,,,0.00,,2013-02-02 10:32:00,
2013-02-02 04:42:00,-10.0,-13.0,30.34,NW,307,0.0,3.0,84,0.00,,,0.00,,2013-02-02 10:42:00,
2013-02-02 04:52:00,-10.0,-13.0,30.34,WNW,300,0.0,3.0,84,0.00,,,0.00,,2013-02-02 10:52:00,
2013-02-02 05:01:00,-11.0,-14.0,30.33,WNW,300,0.0,1.0,84,0.00,,,0.00,,2013-02-02 11:01:00,
2013-02-02 05:11:00,-11.0,-14.0,30.33,WNW,300,0.0,1.0,84,0.00,,,0.00,,2013-02-02 11:11:00,
2013-02-02 05:21:00,-11.0,-14.0,30.33,WNW,300,0.0,1.0,84,0.00,,,0.00,,2013-02-02 11:21:00,
2013-02-02 05:32:00,-11.0,-14.0,30.32,WNW,303,0.0,1.0,84,0.00,,,0.00,,2013-02-02 11:32:00,
2013-02-02 05:42:00,-11.0,-14.0,30.32,WNW,303,0.0,1.0,84,0.00,,,0.00,,2013-02-02 11:42:00,
2013-02-02 05:52:00,-10.0,-13.0,30.32,West,271,0.0,2.0,84,0.00,,,0.00,,2013-02-02 11:52:00,
2013-02-02 06:01:00,-10.0,-13.0,30.32,West,264,0.0,0.0,84,0.00,,,0.00,,2013-02-02 12:01:00,
2013-02-02 06:11:00,-10.0,-13.0,30.32,West,264,0.0,0.0,84,0.00,,,0.00,,2013-02-02 12:11:00,
2013-02-02 06:22:00,-10.0,-13.0,30.32,West,264,0.0,0.0,84,0.00,,,0.00,,2013-02-02 12:22:00,
2013-02-02 06:32:00,-10.0,-13.0,30.31,West,263,0.0,0.0,84,0.00,,,0.00,,2013-02-02 12:32:00,
2013-02-02 06:42:00,-10.0,-13.0,30.31,West,263,0.0,0.0,84,0.00,,,0.00,,2013-02-02 12:42:00,
2013-02-02 06:52:00,-10.0,-13.0,30.31,NNW,333,0.0,2.0,84,0.00,,,0.00,,2013-02-02 12:52:00,
2013-02-02 07:03:00,-9.0,-12.0,30.30,NNW,345,0.0,1.0,84,0.00,,,0.00,,2013-02-02 13:03:00,
2013-02-02 07:11:00,-9.0,-12.0,30.30,NNW,345,0.0,1.0,84,0.00,,,0.00,,2013-02-02 13:11:00,
2013-02-02 07:21:00,-9.0,-12.0,30.31,NNW,344,0.0,1.0,84,0.00,,,0.00,,2013-02-02 13:21:00,
2013-02-02 07:32:00,-9.0,-12.0,30.31,NNW,345,0.0,0.0,84,0.00,,,0.00,,2013-02-02 13:32:00,
2013-02-02 07:42:00,-9.0,-12.0,30.31,NNW,345,0.0,0.0,84,0.00,,,0.00,,2013-02-02 13:42:00,
2013-02-02 07:52:00,-8.0,-12.0,30.30,SW,214,0.0,0.0,84,0.00,,,0.00,,2013-02-02 13:52:00,
2013-02-02 08:02:00,-8.0,-12.0,30.30,SW,224,0.0,0.0,84,0.00,,,0.00,,2013-02-02 14:02:00,
2013-02-02 08:11:00,-8.0,-12.0,30.30,SW,224,0.0,0.0,84,0.00,,,0.00,,2013-02-02 14:11:00,
2013-02-02 08:22:00,-8.0,-12.0,30.30,WSW,238,0.0,0.0,84,0.00,,,0.00,,2013-02-02 14:22:00,
2013-02-02 08:32:00,-7.0,-10.0,30.29,SSE,165,0.0,0.0,85,0.00,,,0.00,,2013-02-02 14:32:00,
2013-02-02 08:42:00,-7.0,-10.0,30.29,SSE,165,0.0,0.0,85,0.00,,,0.00,,2013-02-02 14:42:00,
2013-02-02 08:52:00,-7.0,-10.0,30.28,South,181,0.0,1.0,85,0.00,,,0.00,,2013-02-02 14:52:00,
2013-02-02 09:03:00,-7.0,-10.0,30.28,South,181,0.0,1.0,85,0.00,,,0.00,,2013-02-02 15:03:00,
2013-02-02 09:12:00,-7.0,-10.0,30.28,South,181,0.0,1.0,85,0.00,,,0.00,,2013-02-02 15:12:00,
2013-02-02 09:22:00,-6.0,-9.0,30.26,South,190,1.0,4.0,85,0.00,,,0.00,,2013-02-02 15:22:00,
2013-02-02 09:32:00,-5.0,-8.0,30.27,SSW,208,2.0,5.0,85,0.00,,,0.00,,2013-02-02 15:32:00,
2013-02-02 09:42:00,-5.0,-8.0,30.27,SSW,208,2.0,5.0,85,0.00,,,0.00,,2013-02-02 15:42:00,
2013-02-02 09:52:00,-4.0,-7.0,30.25,SSW,206,4.0,8.0,86,0.00,,,0.00,,2013-02-02 15:52:00,
2013-02-02 10:03:00,-3.0,-6.0,30.27,SSW,204,7.0,10.0,86,0.00,,,0.00,,2013-02-02 16:03:00,
2013-02-02 10:11:00,-3.0,-6.0,30.27,SSW,204,7.0,10.0,86,0.00,,,0.00,,2013-02-02 16:11:00,
2013-02-02 10:22:00,-3.0,-6.0,30.23,SSW,200,10.0,14.0,85,0.00,,,0.00,,2013-02-02 16:22:00,
2013-02-02 10:32:00,-2.0,-5.0,30.22,SSE,162,9.0,13.0,85,0.00,,,0.00,,2013-02-02 16:32:00,
2013-02-02 10:42:00,-2.0,-5.0,30.22,SSE,162,9.0,13.0,85,0.00,,,0.00,,2013-02-02 16:42:00,
2013-02-02 10:52:00,-1.0,-5.0,30.21,SSE,156,5.0,13.0,84,0.00,,,0.00,,2013-02-02 16:52:00,
2013-02-02 11:02:00,0.0,-4.0,30.20,SSE,148,11.0,17.0,81,0.00,,,0.00,,2013-02-02 17:02:00,
2013-02-02 11:11:00,0.0,-4.0,30.20,SSE,148,11.0,17.0,81,0.00,,,0.00,,2013-02-02 17:11:00,
2013-02-02 11:22:00,0.0,-4.0,30.19,SSW,194,10.0,15.0,81,0.00,,,0.00,,2013-02-02 17:22:00,
2013-02-02 11:32:00,0.0,-4.0,30.19,South,184,9.0,19.0,81,0.00,,,0.00,,2013-02-02 17:32:00,
2013-02-02 11:42:00,0.0,-4.0,30.19,South,184,9.0,19.0,81,0.00,,,0.00,,2013-02-02 17:42:00,
2013-02-02 11:52:00,0.0,-4.0,30.19,South,184,9.0,19.0,81,0.00,,,0.00,,2013-02-02 17:52:00,
2013-02-02 12:02:00,1.0,-3.0,30.18,South,181,9.0,16.0,81,0.00,,,0.00,,2013-02-02 18:02:00,
2013-02-02 12:12:00,1.0,-3.0,30.18,South,181,9.0,16.0,81,0.00,,,0.00,,2013-02-02 18:12:00,
2013-02-02 12:22:00,1.0,-3.0,30.17,South,183,10.0,15.0,81,0.00,,,0.00,,2013-02-02 18:22:00,
2013-02-02 12:32:00,1.0,-3.0,30.16,SSW,192,9.0,14.0,81,0.00,,,0.00,,2013-02-02 18:32:00,
2013-02-02 12:42:00,1.0,-3.0,30.16,SSW,192,9.0,14.0,81,0.00,,,0.00,,2013-02-02 18:42:00,
2013-02-02 12:52:00,1.0,-3.0,30.15,South,190,10.0,16.0,82,0.00,,,0.00,,2013-02-02 18:52:00,
2013-02-02 13:02:00,1.0,-3.0,30.14,South,174,9.0,14.0,83,0.00,,,0.00,,2013-02-02 19:02:00,
2013-02-02 13:12:00,1.0,-3.0,30.14,South,174,9.0,14.0,83,0.00,,,0.00,,2013-02-02 19:12:00,
2013-02-02 13:21:00,1.0,-3.0,30.14,SSE,165,10.0,14.0,82,0.00,,,0.00,,2013-02-02 19:21:00,
2013-02-02 13:32:00,2.0,-2.0,30.14,South,181,7.0,12.0,82,0.00,,,0.00,,2013-02-02 19:32:00,
2013-02-02 13:42:00,2.0,-2.0,30.14,South,181,7.0,12.0,82,0.00,,,0.00,,2013-02-02 19:42:00,
2013-02-02 13:52:00,2.0,-2.0,30.13,South,174,5.0,12.0,82,0.00,,,0.00,,2013-02-02 19:52:00,
2013-02-02 14:01:00,3.0,-1.0,30.11,SSE,158,4.0,9.0,81,0.00,,,0.00,,2013-02-02 20:01:00,
2013-02-02 14:11:00,3.0,-1.0,30.11,SSE,158,4.0,9.0,81,0.00,,,0.00,,2013-02-02 20:11:00,
2013-02-02 14:21:00,3.0,-1.0,30.11,SSE,168,3.0,7.0,81,0.00,,,0.00,,2013-02-02 20:21:00,
2013-02-02 14:32:00,4.0,-1.0,30.11,SSE,155,3.0,7.0,80,0.00,,,0.00,,2013-02-02 20:32:00,
2013-02-02 14:42:00,4.0,-1.0,30.11,SSE,155,3.0,7.0,80,0.00,,,0.00,,2013-02-02 20:42:00,
2013-02-02 14:52:00,4.0,0.0,30.10,SSE,158,4.0,10.0,82,0.00,,,0.00,,2013-02-02 20:52:00,
2013-02-02 15:02:00,3.0,-1.0,30.11,SSE,166,2.0,8.0,81,0.00,,,0.00,,2013-02-02 21:02:00,
2013-02-02 15:11:00,3.0,-1.0,30.11,SSE,166,2.0,8.0,81,0.00,,,0.00,,2013-02-02 21:11:00,
2013-02-02 15:21:00,4.0,0.0,30.10,SE,146,4.0,7.0,82,0.00,,,0.00,,2013-02-02 21:21:00,
2013-02-02 15:32:00,4.0,-1.0,30.10,SE,145,4.0,6.0,81,0.00,,,0.00,,2013-02-02 21:32:00,
2013-02-02 15:42:00,4.0,-1.0,30.10,SE,145,4.0,6.0,81,0.00,,,0.00,,2013-02-02 21:42:00,
2013-02-02 15:52:00,4.0,-1.0,30.10,SSE,152,3.0,6.0,81,0.00,,,0.00,,2013-02-02 21:52:00,
2013-02-02 16:02:00,4.0,0.0,30.11,SE,142,2.0,6.0,82,0.00,,,0.00,,2013-02-02 22:02:00,
2013-02-02 16:11:00,4.0,0.0,30.11,SE,142,2.0,6.0,82,0.00,,,0.00,,2013-02-02 22:11:00,
2013-02-02 16:21:00,4.0,-1.0,30.11,South,176,3.0,7.0,81,0.00,,,0.00,,2013-02-02 22:21:00,
2013-02-02 16:32:00,4.0,-1.0,30.11,South,176,3.0,7.0,81,0.00,,,0.00,,2013-02-02 22:32:00,
2013-02-02 16:42:00,4.0,-1.0,30.11,South,176,3.0,7.0,81,0.00,,,0.00,,2013-02-02 22:42:00,
2013-02-02 16:52:00,4.0,0.0,30.11,SSE,156,3.0,7.0,82,0.00,,,0.00,,2013-02-02 22:52:00,
2013-02-02 17:02:00,4.0,0.0,30.14,SSW,198,3.0,5.0,83,0.00,,,0.00,,2013-02-02 23:02:00,
2013-02-02 17:11:00,4.0,0.0,30.14,SSW,198,3.0,5.0,83,0.00,,,0.00,,2013-02-02 23:11:00,
2013-02-02 17:21:00,4.0,0.0,30.14,WSW,245,2.0,4.0,83,0.00,,,0.00,,2013-02-02 23:21:00,
2013-02-02 17:32:00,4.0,0.0,30.14,WSW,238,3.0,4.0,83,0.00,,,0.00,,2013-02-02 23:32:00,
2013-02-02 17:42:00,4.0,0.0,30.14,WSW,238,3.0,4.0,83,0.00,,,0.00,,2013-02-02 23:42:00,
2013-02-02 17:52:00,4.0,0.0,30.14,SW,232,2.0,3.0,83,0.00,,,0.00,,2013-02-02 23:52:00,
2013-02-02 18:02:00,4.0,0.0,30.14,SW,234,2.0,4.0,83,0.00,,,0.00,,2013-02-03 00:02:00,
2013-02-02 18:11:00,4.0,0.0,30.14,SW,234,2.0,4.0,83,0.00,,,0.00,,2013-02-03 00:11:00,
2013-02-02 18:22:00,4.0,0.0,30.14,SW,229,1.0,3.0,84,0.00,,,0.00,,2013-02-03 00:22:00,
2013-02-02 18:32:00,4.0,0.0,30.15,WSW,243,1.0,3.0,84,0.00,,,0.00,,2013-02-03 00:32:00,
2013-02-02 18:41:00,4.0,0.0,30.15,WSW,243,1.0,3.0,84,0.00,,,0.00,,2013-02-03 00:41:00,
2013-02-02 18:52:00,4.0,0.0,30.15,WSW,243,1.0,3.0,84,0.00,,,0.00,,2013-02-03 00:52:00,
2013-02-02 19:02:00,4.0,1.0,30.16,WSW,245,1.0,2.0,85,0.00,,,0.00,,2013-02-03 01:02:00,
2013-02-02 19:11:00,4.0,1.0,30.16,WSW,245,1.0,2.0,85,0.00,,,0.00,,2013-02-03 01:11:00,
2013-02-02 19:21:00,4.0,1.0,30.16,WSW,243,1.0,3.0,85,0.00,,,0.00,,2013-02-03 01:21:00,
2013-02-02 19:32:00,4.0,1.0,30.16,WSW,255,1.0,3.0,85,0.00,,,0.00,,2013-02-03 01:32:00,
2013-02-02 19:42:00,4.0,1.0,30.16,WSW,255,1.0,3.0,85,0.00,,,0.00,,2013-02-03 01:42:00,
2013-02-02 19:52:00,5.0,2.0,30.16,West,265,3.0,5.0,86,0.00,,,0.00,,2013-02-03 01:52:00,
2013-02-02 20:01:00,5.0,2.0,30.17,West,278,1.0,4.0,86,0.00,,,0.00,,2013-02-03 02:01:00,
2013-02-02 20:11:00,5.0,2.0,30.17,West,278,1.0,4.0,86,0.00,,,0.00,,2013-02-03 02:11:00,
2013-02-02 20:21:00,5.0,2.0,30.17,West,271,3.0,5.0,86,0.00,,,0.00,,2013-02-03 02:21:00,
2013-02-02 20:32:00,6.0,2.0,30.18,NW,319,3.0,9.0,85,0.00,,,0.00,,2013-02-03 02:32:00,
2013-02-02 20:42:00,6.0,2.0,30.18,NW,319,3.0,9.0,85,0.00,,,0.00,,2013-02-03 02:42:00,
2013-02-02 20:52:00,6.0,2.0,30.18,WNW,301,6.0,11.0,85,0.00,,,0.00,,2013-02-03 02:52:00,
2013-02-02 21:02:00,6.0,2.0,30.18,NW,319,6.0,10.0,84,0.00,,,0.00,,2013-02-03 03:02:00,
2013-02-02 21:11:00,6.0,2.0,30.18,NW,319,6.0,10.0,84,0.00,,,0.00,,2013-02-03 03:11:00,
2013-02-02 21:21:00,6.0,2.0,30.18,NW,319,6.0,10.0,84,0.00,,,0.00,,2013-02-03 03:21:00,
2013-02-02 21:31:00,5.0,1.0,30.18,NW,315,5.0,14.0,82,0.00,,,0.00,,2013-02-03 03:31:00,
2013-02-02 21:42:00,5.0,1.0,30.18,NW,315,5.0,14.0,82,0.00,,,0.00,,2013-02-03 03:42:00,
2013-02-02 21:52:00,6.0,2.0,30.18,NW,315,5.0,11.0,82,0.00,,,0.00,,2013-02-03 03:52:00,
2013-02-02 22:01:00,6.0,1.0,30.18,NW,318,6.0,10.0,81,0.00,,,0.00,,2013-02-03 04:01:00,
2013-02-02 22:11:00,6.0,1.0,30.18,NW,318,6.0,10.0,81,0.00,,,0.00,,2013-02-03 04:11:00,
2013-02-02 22:21:00,6.0,1.0,30.18,NW,318,6.0,10.0,81,0.00,,,0.00,,2013-02-03 04:21:00,
2013-02-02 22:31:00,6.0,2.0,30.19,NNW,329,6.0,11.0,82,0.00,,,0.00,,2013-02-03 04:31:00,
2013-02-02 22:42:00,6.0,2.0,30.19,NNW,329,6.0,11.0,82,0.00,,,0.00,,2013-02-03 04:42:00,
2013-02-02 22:52:00,7.0,3.0,30.19,NW,316,6.0,10.0,83,0.00,,,0.00,,2013-02-03 04:52:00,
2013-02-02 23:03:00,7.0,3.0,30.19,WNW,300,7.0,14.0,82,0.00,,,0.00,,2013-02-03 05:03:00,
2013-02-02 23:11:00,7.0,3.0,30.19,WNW,300,7.0,14.0,82,0.00,,,0.00,,2013-02-03 05:11:00,
2013-02-02 23:22:00,7.0,3.0,30.19,NNW,329,6.0,10.0,82,0.00,,,0.00,,2013-02-03 05:22:00,
2013-02-02 23:32:00,6.0,2.0,30.17,WNW,298,4.0,7.0,82,0.00,,,0.00,,2013-02-03 05:32:00,
2013-02-02 23:42:00,6.0,2.0,30.17,WNW,298,4.0,7.0,82,0.00,,,0.00,,2013-02-03 05:42:00,
2013-02-02 23:52:00,6.0,2.0,30.17,WNW,298,4.0,7.0,82,0.00,,,0.00,,2013-02-03 05:52:00,